Time,TemperatureF,DewpointF,PressureIn,WindDirection,WindDirectionDegrees,WindSpeedMPH,WindSpeedGustMPH,Humidity,HourlyPrecipIn,Conditions,Clouds,dailyrainin,SoftwareType,DateUTC
2013-11-09 00:01:00,35.4,24.1,30.06,East,90,0.0,0.0,63,0.00,,,0.00,WUHU21623XXSP,2013-11-09 05:01:00,
2013-11-09 00:06:00,35.2,23.9,30.06,North,0,0.0,0.0,63,0.00,,,0.00,WUHU21623XXSP,2013-11-09 05:06:00,
2013-11-09 00:11:00,35.2,24.3,30.06,North,0,0.0,0.0,64,0.00,,,0.00,WUHU21623XXSP,2013-11-09 05:11:00,
2013-11-09 00:16:00,34.9,23.9,30.06,NNW,337,0.0,0.0,64,0.00,,,0.00,WUHU21623XXSP,2013-11-09 05:16:00,
2013-11-09 00:21:00,34.9,23.9,30.06,SE,135,0.0,0.0,64,0.00,,,0.00,WUHU21623XXSP,2013-11-09 05:21:00,
2013-11-09 00:26:00,34.9,23.9,30.06,South,180,0.0,0.0,64,0.00,,,0.00,WUHU21623XXSP,2013-11-09 05:26:00,
2013-11-09 00:31:00,34.7,23.7,30.06,NNE,22,0.0,0.0,64,0.00,,,0.00,WUHU21623XXSP,2013-11-09 05:31:00,
2013-11-09 00:36:00,34.5,23.5,30.06,ENE,67,0.0,0.0,64,0.00,,,0.00,WUHU21623XXSP,2013-11-09 05:36:00,
2013-11-09 00:41:00,34.5,23.5,30.06,NNE,22,0.0,0.0,64,0.00,,,0.00,WUHU21623XXSP,2013-11-09 05:41:00,
2013-11-09 00:46:00,34.5,23.9,30.07,WNW,292,0.0,1.6,65,0.00,,,0.00,WUHU21623XXSP,2013-11-09 05:46:00,
2013-11-09 00:51:00,34.3,23.7,30.07,NW,315,0.0,1.6,65,0.00,,,0.00,WUHU21623XXSP,2013-11-09 05:51:00,
2013-11-09 00:56:00,34.5,23.9,30.08,North,0,0.0,0.0,65,0.00,,,0.00,WUHU21623XXSP,2013-11-09 05:56:00,
2013-11-09 01:01:00,34.3,23.9,30.07,ENE,67,0.0,0.0,65,0.00,,,0.00,WUHU21623XXSP,2013-11-09 06:01:00,
2013-11-09 01:06:00,34.3,23.7,30.07,NNE,22,0.0,0.0,65,0.00,,,0.00,WUHU21623XXSP,2013-11-09 06:06:00,
2013-11-09 01:11:00,34.3,24.1,30.07,ESE,112,0.0,0.0,66,0.00,,,0.00,WUHU21623XXSP,2013-11-09 06:11:00,
2013-11-09 01:16:00,34.3,24.1,30.08,NW,315,0.7,0.7,66,0.00,,,0.00,WUHU21623XXSP,2013-11-09 06:16:00,
2013-11-09 01:21:00,34.5,24.3,30.08,North,0,0.0,0.7,66,0.00,,,0.00,WUHU21623XXSP,2013-11-09 06:21:00,
2013-11-09 01:26:00,34.3,24.1,30.08,WNW,292,0.0,1.6,66,0.00,,,0.00,WUHU21623XXSP,2013-11-09 06:26:00,
2013-11-09 01:31:00,34.3,24.1,30.08,ESE,112,0.0,1.6,66,0.00,,,0.00,WUHU21623XXSP,2013-11-09 06:31:00,
2013-11-09 01:36:00,34.2,23.9,30.09,SSW,202,0.0,0.0,66,0.00,,,0.00,WUHU21623XXSP,2013-11-09 06:36:00,
2013-11-09 01:41:00,34.2,23.9,30.09,SW,225,0.0,0.0,66,0.00,,,0.00,WUHU21623XXSP,2013-11-09 06:41:00,
2013-11-09 01:46:00,34.0,23.7,30.09,WNW,292,0.0,0.0,66,0.00,,,0.00,WUHU21623XXSP,2013-11-09 06:46:00,
2013-11-09 01:51:00,34.0,23.7,30.09,WNW,292,0.0,0.0,66,0.00,,,0.00,WUHU21623XXSP,2013-11-09 06:51:00,
2013-11-09 01:56:00,34.0,23.7,30.09,SW,225,0.0,0.0,66,0.00,,,0.00,WUHU21623XXSP,2013-11-09 06:56:00,
2013-11-09 02:01:00,34.0,23.5,30.09,NNW,337,0.0,0.0,66,0.00,,,0.00,WUHU21623XXSP,2013-11-09 07:01:00,
2013-11-09 02:06:00,33.8,23.9,30.09,SSW,202,0.0,0.0,67,0.00,,,0.00,WUHU21623XXSP,2013-11-09 07:06:00,
2013-11-09 02:11:00,33.6,23.7,30.09,SSW,202,0.0,0.0,67,0.00,,,0.00,WUHU21623XXSP,2013-11-09 07:11:00,
2013-11-09 02:16:00,33.6,23.7,30.09,NNE,22,0.0,0.0,67,0.00,,,0.00,WUHU21623XXSP,2013-11-09 07:16:00,
2013-11-09 02:21:00,33.6,23.7,30.10,North,0,0.0,0.0,67,0.00,,,0.00,WUHU21623XXSP,2013-11-09 07:21:00,
2013-11-09 02:26:00,33.6,23.7,30.10,SSW,202,0.0,0.0,67,0.00,,,0.00,WUHU21623XXSP,2013-11-09 07:26:00,
2013-11-09 02:31:00,33.4,23.9,30.10,NNW,337,0.0,0.0,68,0.00,,,0.00,WUHU21623XXSP,2013-11-09 07:31:00,
2013-11-09 02:36:00,33.4,23.9,30.10,West,270,0.0,0.0,68,0.00,,,0.00,WUHU21623XXSP,2013-11-09 07:36:00,
2013-11-09 02:41:00,33.4,23.9,30.10,WSW,247,0.0,0.0,68,0.00,,,0.00,WUHU21623XXSP,2013-11-09 07:41:00,
2013-11-09 02:46:00,33.4,23.9,30.10,NW,315,0.0,0.0,68,0.00,,,0.00,WUHU21623XXSP,2013-11-09 07:46:00,
2013-11-09 02:51:00,33.4,23.9,30.10,WSW,247,0.0,0.0,68,0.00,,,0.00,WUHU21623XXSP,2013-11-09 07:51:00,
2013-11-09 02:56:00,33.4,23.9,30.10,SSW,202,0.0,0.0,68,0.00,,,0.00,WUHU21623XXSP,2013-11-09 07:56:00,
2013-11-09 03:01:00,33.3,23.8,30.11,NNE,22,0.0,1.1,68,0.00,,,0.00,WUHU21623XXSP,2013-11-09 08:01:00,
2013-11-09 03:06:00,33.4,23.8,30.11,NNE,22,0.0,1.1,68,0.00,,,0.00,WUHU21623XXSP,2013-11-09 08:06:00,
2013-11-09 03:11:00,33.4,23.9,30.11,ENE,67,0.0,0.0,68,0.00,,,0.00,WUHU21623XXSP,2013-11-09 08:11:00,
2013-11-09 03:16:00,33.4,24.3,30.12,WNW,292,0.0,0.0,69,0.00,,,0.00,WUHU21623XXSP,2013-11-09 08:16:00,
2013-11-09 03:21:00,33.3,24.1,30.12,North,0,0.0,0.0,69,0.00,,,0.00,WUHU21623XXSP,2013-11-09 08:21:00,
2013-11-09 03:26:00,33.4,24.3,30.12,West,270,0.0,0.0,69,0.00,,,0.00,WUHU21623XXSP,2013-11-09 08:26:00,
2013-11-09 03:31:00,33.4,24.3,30.12,South,180,0.0,0.0,69,0.00,,,0.00,WUHU21623XXSP,2013-11-09 08:31:00,
2013-11-09 03:36:00,33.4,24.3,30.12,South,180,0.0,0.0,69,0.00,,,0.00,WUHU21623XXSP,2013-11-09 08:36:00,
2013-11-09 03:41:00,33.4,24.7,30.12,North,0,0.0,0.0,70,0.00,,,0.00,WUHU21623XXSP,2013-11-09 08:41:00,
2013-11-09 03:46:00,33.6,24.8,30.12,NNW,337,0.0,0.0,70,0.00,,,0.00,WUHU21623XXSP,2013-11-09 08:46:00,
2013-11-09 03:51:00,33.6,24.8,30.12,SSE,157,0.0,0.0,70,0.00,,,0.00,WUHU21623XXSP,2013-11-09 08:51:00,
2013-11-09 03:56:00,34.0,25.0,30.12,WNW,292,0.0,0.0,70,0.00,,,0.00,WUHU21623XXSP,2013-11-09 08:56:00,
2013-11-09 04:01:00,34.0,25.2,30.12,WNW,292,0.0,0.0,70,0.00,,,0.00,WUHU21623XXSP,2013-11-09 09:01:00,
2013-11-09 04:06:00,34.0,25.2,30.12,SE,135,0.0,0.0,70,0.00,,,0.00,WUHU21623XXSP,2013-11-09 09:06:00,
2013-11-09 04:11:00,34.0,25.2,30.13,SE,135,0.0,0.0,70,0.00,,,0.00,WUHU21623XXSP,2013-11-09 09:11:00,
2013-11-09 04:16:00,34.0,24.8,30.13,NNE,22,0.0,0.0,69,0.00,,,0.00,WUHU21623XXSP,2013-11-09 09:16:00,
2013-11-09 04:21:00,34.0,24.8,30.13,North,0,0.0,0.0,69,0.00,,,0.00,WUHU21623XXSP,2013-11-09 09:21:00,
2013-11-09 04:26:00,34.0,25.2,30.14,NW,315,0.0,0.0,70,0.00,,,0.00,WUHU21623XXSP,2013-11-09 09:26:00,
2013-11-09 04:31:00,33.8,25.0,30.14,NNW,337,0.0,0.0,70,0.00,,,0.00,WUHU21623XXSP,2013-11-09 09:31:00,
2013-11-09 04:36:00,33.8,25.0,30.14,WNW,292,0.0,0.0,70,0.00,,,0.00,WUHU21623XXSP,2013-11-09 09:36:00,
2013-11-09 04:41:00,33.6,24.8,30.14,SSW,202,0.0,0.0,70,0.00,,,0.00,WUHU21623XXSP,2013-11-09 09:41:00,
2013-11-09 04:46:00,33.6,24.8,30.14,WNW,292,0.0,0.0,70,0.00,,,0.00,WUHU21623XXSP,2013-11-09 09:46:00,
2013-11-09 04:51:00,33.6,24.8,30.14,SW,225,0.0,0.0,70,0.00,,,0.00,WUHU21623XXSP,2013-11-09 09:51:00,
2013-11-09 04:56:00,33.4,24.7,30.14,WNW,292,0.0,0.0,70,0.00,,,0.00,WUHU21623XXSP,2013-11-09 09:56:00,
2013-11-09 05:01:00,33.3,24.5,30.14,ENE,67,0.0,0.0,70,0.00,,,0.00,WUHU21623XXSP,2013-11-09 10:01:00,
2013-11-09 05:06:00,33.1,24.3,30.14,NW,315,0.0,0.0,70,0.00,,,0.00,WUHU21623XXSP,2013-11-09 10:06:00,
2013-11-09 05:11:00,33.1,24.3,30.14,NE,45,0.0,0.0,70,0.00,,,0.00,WUHU21623XXSP,2013-11-09 10:11:00,
2013-11-09 05:16:00,32.9,24.2,30.14,WNW,292,0.0,0.0,70,0.00,,,0.00,WUHU21623XXSP,2013-11-09 10:16:00,
2013-11-09 05:21:00,32.9,24.2,30.14,SW,225,0.0,0.0,71,0.00,,,0.00,WUHU21623XXSP,2013-11-09 10:21:00,
2013-11-09 05:26:00,32.9,24.5,30.14,SW,225,0.0,0.0,71,0.00,,,0.00,WUHU21623XXSP,2013-11-09 10:26:00,
2013-11-09 05:31:00,32.7,24.3,30.14,ESE,112,0.0,0.0,71,0.00,,,0.00,WUHU21623XXSP,2013-11-09 10:31:00,
2013-11-09 05:36:00,32.7,24.3,30.14,SW,225,0.0,0.0,71,0.00,,,0.00,WUHU21623XXSP,2013-11-09 10:36:00,
2013-11-09 05:41:00,32.7,24.3,30.15,WSW,247,0.0,0.0,71,0.00,,,0.00,WUHU21623XXSP,2013-11-09 10:41:00,
2013-11-09 05:46:00,32.5,24.2,30.15,SSE,157,0.0,0.0,71,0.00,,,0.00,WUHU21623XXSP,2013-11-09 10:46:00,
2013-11-09 05:51:00,32.4,24.2,30.15,SSE,157,0.0,0.0,71,0.00,,,0.00,WUHU21623XXSP,2013-11-09 10:51:00,
2013-11-09 05:56:00,32.5,24.2,30.15,ESE,112,0.0,0.0,71,0.00,,,0.00,WUHU21623XXSP,2013-11-09 10:56:00,
2013-11-09 06:01:00,32.5,24.2,30.15,SE,135,0.0,0.0,71,0.00,,,0.00,WUHU21623XXSP,2013-11-09 11:01:00,
2013-11-09 06:06:00,32.4,24.0,30.15,South,180,0.0,0.0,71,0.00,,,0.00,WUHU21623XXSP,2013-11-09 11:06:00,
2013-11-09 06:11:00,32.4,24.3,30.15,NW,315,0.0,0.0,72,0.00,,,0.00,WUHU21623XXSP,2013-11-09 11:11:00,
2013-11-09 06:16:00,32.4,24.3,30.15,West,270,0.0,0.0,72,0.00,,,0.00,WUHU21623XXSP,2013-11-09 11:16:00,
2013-11-09 06:21:00,32.2,24.2,30.16,SW,225,0.0,0.0,72,0.00,,,0.00,WUHU21623XXSP,2013-11-09 11:21:00,
2013-11-09 06:26:00,32.0,24.0,30.16,NW,315,0.0,0.0,72,0.00,,,0.00,WUHU21623XXSP,2013-11-09 11:26:00,
2013-11-09 06:31:00,32.0,24.0,30.16,WSW,247,0.0,0.0,72,0.00,,,0.00,WUHU21623XXSP,2013-11-09 11:31:00,
2013-11-09 06:36:00,32.2,24.2,30.16,NW,315,0.0,0.0,72,0.00,,,0.00,WUHU21623XXSP,2013-11-09 11:36:00,
2013-11-09 06:41:00,32.2,24.2,30.16,SSE,157,0.0,0.0,72,0.00,,,0.00,WUHU21623XXSP,2013-11-09 11:41:00,
2013-11-09 06:46:00,32.0,24.0,30.16,SE,135,0.0,0.0,72,0.00,,,0.00,WUHU21623XXSP,2013-11-09 11:46:00,
2013-11-09 06:51:00,32.0,24.0,30.17,WSW,247,1.1,1.1,72,0.00,,,0.00,WUHU21623XXSP,2013-11-09 11:51:00,
2013-11-09 06:56:00,31.8,23.8,30.17,SSE,157,0.0,1.1,72,0.00,,,0.00,WUHU21623XXSP,2013-11-09 11:56:00,
2013-11-09 07:01:00,32.2,24.2,30.17,West,270,0.0,0.0,72,0.00,,,0.00,WUHU21623XXSP,2013-11-09 12:01:00,
2013-11-09 07:06:00,32.2,24.2,30.17,SSW,202,0.0,0.0,72,0.00,,,0.00,WUHU21623XXSP,2013-11-09 12:06:00,
2013-11-09 07:11:00,32.4,24.3,30.17,South,180,0.0,0.0,72,0.00,,,0.00,WUHU21623XXSP,2013-11-09 12:11:00,
2013-11-09 07:16:00,32.4,24.3,30.17,SSE,157,0.0,0.0,72,0.00,,,0.00,WUHU21623XXSP,2013-11-09 12:16:00,
2013-11-09 07:21:00,32.7,24.7,30.17,NW,315,0.0,0.0,72,0.00,,,0.00,WUHU21623XXSP,2013-11-09 12:21:00,
2013-11-09 07:26:00,32.9,24.8,30.17,West,270,0.0,0.0,72,0.00,,,0.00,WUHU21623XXSP,2013-11-09 12:26:00,
2013-11-09 07:31:00,33.1,25.0,30.17,WNW,292,0.0,0.0,72,0.00,,,0.00,WUHU21623XXSP,2013-11-09 12:31:00,
2013-11-09 07:36:00,33.4,25.6,30.18,West,270,0.0,0.0,73,0.00,,,0.00,WUHU21623XXSP,2013-11-09 12:36:00,
2013-11-09 07:41:00,33.8,26.0,30.18,NW,315,0.0,0.0,73,0.00,,,0.00,WUHU21623XXSP,2013-11-09 12:41:00,
2013-11-09 07:46:00,34.3,26.2,30.17,West,270,0.0,0.0,72,0.00,,,0.00,WUHU21623XXSP,2013-11-09 12:46:00,
2013-11-09 07:51:00,34.5,26.3,30.18,East,90,0.0,0.0,72,0.00,,,0.00,WUHU21623XXSP,2013-11-09 12:51:00,
2013-11-09 07:56:00,34.7,26.5,30.17,West,270,0.0,0.0,72,0.00,,,0.00,WUHU21623XXSP,2013-11-09 12:56:00,
2013-11-09 08:01:00,35.4,27.2,30.17,SE,135,0.0,0.0,72,0.00,,,0.00,WUHU21623XXSP,2013-11-09 13:01:00,
2013-11-09 08:06:00,36.5,28.3,30.17,NW,315,0.0,1.3,72,0.00,,,0.00,WUHU21623XXSP,2013-11-09 13:06:00,
2013-11-09 08:11:00,37.6,29.1,30.18,ENE,67,0.0,1.3,71,0.00,,,0.00,WUHU21623XXSP,2013-11-09 13:11:00,
2013-11-09 08:16:00,38.8,29.5,30.17,North,0,0.0,1.6,69,0.00,,,0.00,WUHU21623XXSP,2013-11-09 13:16:00,
2013-11-09 08:21:00,40.3,30.5,30.17,WNW,292,0.0,1.6,68,0.00,,,0.00,WUHU21623XXSP,2013-11-09 13:21:00,
2013-11-09 08:26:00,41.7,31.2,30.18,NNE,22,0.0,0.0,66,0.00,,,0.00,WUHU21623XXSP,2013-11-09 13:26:00,
2013-11-09 08:31:00,43.3,31.5,30.17,NW,315,0.0,0.0,63,0.00,,,0.00,WUHU21623XXSP,2013-11-09 13:31:00,
2013-11-09 08:36:00,45.1,32.9,30.17,South,180,0.0,0.0,62,0.00,,,0.00,WUHU21623XXSP,2013-11-09 13:36:00,
2013-11-09 08:41:00,47.8,34.7,30.17,North,0,0.0,0.0,60,0.00,,,0.00,WUHU21623XXSP,2013-11-09 13:41:00,
2013-11-09 08:46:00,51.8,35.6,30.17,South,180,0.0,2.2,54,0.00,,,0.00,WUHU21623XXSP,2013-11-09 13:46:00,
2013-11-09 08:51:00,53.2,35.5,30.17,WNW,292,0.0,2.2,51,0.00,,,0.00,WUHU21623XXSP,2013-11-09 13:51:00,
2013-11-09 08:56:00,53.6,34.3,30.17,NNW,337,8.9,8.9,48,0.00,,,0.00,WUHU21623XXSP,2013-11-09 13:56:00,
2013-11-09 09:01:00,55.6,34.4,30.16,West,270,0.9,8.9,45,0.00,,,0.00,WUHU21623XXSP,2013-11-09 14:01:00,
2013-11-09 09:06:00,56.8,35.0,30.16,NNW,337,11.2,11.2,44,0.00,,,0.00,WUHU21623XXSP,2013-11-09 14:06:00,
2013-11-09 09:11:00,58.6,35.5,30.16,North,0,0.9,11.2,42,0.00,,,0.00,WUHU21623XXSP,2013-11-09 14:11:00,
2013-11-09 09:16:00,59.7,35.9,30.16,WSW,247,0.0,2.0,41,0.00,,,0.00,WUHU21623XXSP,2013-11-09 14:16:00,
2013-11-09 09:21:00,61.3,36.1,30.16,North,0,1.3,2.9,39,0.00,,,0.00,WUHU21623XXSP,2013-11-09 14:21:00,
2013-11-09 09:26:00,64.0,37.1,30.16,NW,315,0.0,2.9,37,0.00,,,0.00,WUHU21623XXSP,2013-11-09 14:26:00,
2013-11-09 09:31:00,64.6,36.1,30.16,SE,135,0.0,0.7,35,0.00,,,0.00,WUHU21623XXSP,2013-11-09 14:31:00,
2013-11-09 09:36:00,64.9,36.4,30.16,North,0,1.6,2.2,35,0.00,,,0.00,WUHU21623XXSP,2013-11-09 14:36:00,
2013-11-09 09:41:00,65.3,35.9,30.15,NW,315,0.0,2.2,34,0.00,,,0.00,WUHU21623XXSP,2013-11-09 14:41:00,
2013-11-09 09:46:00,65.1,35.9,30.15,WNW,292,0.0,0.0,34,0.00,,,0.00,WUHU21623XXSP,2013-11-09 14:46:00,
2013-11-09 09:51:00,65.5,36.2,30.15,NNW,337,4.7,4.7,34,0.00,,,0.00,WUHU21623XXSP,2013-11-09 14:51:00,
2013-11-09 09:56:00,66.7,35.9,30.15,NNW,337,0.0,8.3,32,0.00,,,0.00,WUHU21623XXSP,2013-11-09 14:56:00,
2013-11-09 10:01:00,67.5,36.4,30.15,NNE,22,6.3,8.3,32,0.00,,,0.00,WUHU21623XXSP,2013-11-09 15:01:00,
2013-11-09 10:06:00,68.0,36.2,30.15,North,0,7.4,7.4,31,0.00,,,0.00,WUHU21623XXSP,2013-11-09 15:06:00,
2013-11-09 10:11:00,68.7,36.8,30.15,North,0,6.7,7.4,31,0.00,,,0.00,WUHU21623XXSP,2013-11-09 15:11:00,
2013-11-09 10:16:00,68.7,36.1,30.15,SW,225,0.0,6.7,30,0.00,,,0.00,WUHU21623XXSP,2013-11-09 15:16:00,
2013-11-09 10:21:00,68.0,35.4,30.15,WSW,247,4.9,4.9,30,0.00,,,0.00,WUHU21623XXSP,2013-11-09 15:21:00,
2013-11-09 10:26:00,65.5,33.3,30.14,SE,135,0.0,4.9,30,0.00,,,0.00,WUHU21623XXSP,2013-11-09 15:26:00,
2013-11-09 10:31:00,63.7,33.2,30.14,West,270,3.8,3.8,32,0.00,,,0.00,WUHU21623XXSP,2013-11-09 15:31:00,
2013-11-09 10:36:00,62.1,31.7,30.14,NNE,22,2.7,3.8,32,0.00,,,0.00,WUHU21623XXSP,2013-11-09 15:36:00,
2013-11-09 10:41:00,59.5,30.2,30.14,SW,225,0.0,5.1,33,0.00,,,0.00,WUHU21623XXSP,2013-11-09 15:41:00,
2013-11-09 10:46:00,58.3,29.8,30.14,SSE,157,0.0,5.1,34,0.00,,,0.00,WUHU21623XXSP,2013-11-09 15:46:00,
2013-11-09 10:51:00,57.7,29.4,30.14,NW,315,1.6,2.0,34,0.00,,,0.00,WUHU21623XXSP,2013-11-09 15:51:00,
2013-11-09 10:56:00,55.8,28.3,30.14,SSW,202,0.9,6.3,35,0.00,,,0.00,WUHU21623XXSP,2013-11-09 15:56:00,
2013-11-09 11:01:00,54.1,26.2,30.14,West,270,0.0,6.3,34,0.00,,,0.00,WUHU21623XXSP,2013-11-09 16:01:00,
2013-11-09 11:06:00,52.9,26.5,30.13,NNW,337,0.0,6.5,36,0.00,,,0.00,WUHU21623XXSP,2013-11-09 16:06:00,
2013-11-09 11:11:00,51.6,26.0,30.13,SSW,202,8.9,8.9,37,0.00,,,0.00,WUHU21623XXSP,2013-11-09 16:11:00,
2013-11-09 11:16:00,50.5,25.0,30.13,NNE,22,0.0,8.9,37,0.00,,,0.00,WUHU21623XXSP,2013-11-09 16:16:00,
2013-11-09 11:21:00,49.8,25.1,30.13,North,0,6.3,6.3,38,0.00,,,0.00,WUHU21623XXSP,2013-11-09 16:21:00,
2013-11-09 11:26:00,49.3,25.3,30.12,NW,315,4.0,6.3,39,0.00,,,0.00,WUHU21623XXSP,2013-11-09 16:26:00,
2013-11-09 11:31:00,49.3,26.0,30.12,NW,315,2.5,5.4,40,0.00,,,0.00,WUHU21623XXSP,2013-11-09 16:31:00,
2013-11-09 11:36:00,49.1,25.1,30.12,NNW,337,3.4,5.4,39,0.00,,,0.00,WUHU21623XXSP,2013-11-09 16:36:00,
2013-11-09 11:41:00,48.7,25.5,30.12,NNW,337,2.0,3.4,40,0.00,,,0.00,WUHU21623XXSP,2013-11-09 16:41:00,
2013-11-09 11:46:00,48.7,25.5,30.12,NNW,337,8.3,8.3,40,0.00,,,0.00,WUHU21623XXSP,2013-11-09 16:46:00,
2013-11-09 11:51:00,48.9,25.6,30.11,NNE,22,0.0,8.3,40,0.00,,,0.00,WUHU21623XXSP,2013-11-09 16:51:00,
2013-11-09 11:56:00,49.3,26.0,30.11,WSW,247,0.0,2.0,40,0.00,,,0.00,WUHU21623XXSP,2013-11-09 16:56:00,
2013-11-09 12:01:00,49.1,26.3,30.11,NNE,22,1.6,2.0,41,0.00,,,0.00,WUHU21623XXSP,2013-11-09 17:01:00,
2013-11-09 12:06:00,49.5,27.2,30.10,West,270,1.3,1.8,42,0.00,,,0.00,WUHU21623XXSP,2013-11-09 17:06:00,
2013-11-09 12:11:00,49.8,28.1,30.10,South,180,3.1,3.1,43,0.00,,,0.00,WUHU21623XXSP,2013-11-09 17:11:00,
2013-11-09 12:16:00,50.2,28.4,30.11,SE,135,0.0,3.1,43,0.00,,,0.00,WUHU21623XXSP,2013-11-09 17:16:00,
2013-11-09 12:21:00,50.5,28.8,30.11,SE,135,4.0,4.0,43,0.00,,,0.00,WUHU21623XXSP,2013-11-09 17:21:00,
2013-11-09 12:26:00,50.5,28.8,30.11,NNE,22,0.0,4.0,43,0.00,,,0.00,WUHU21623XXSP,2013-11-09 17:26:00,
2013-11-09 12:31:00,50.7,28.4,30.11,West,270,0.0,0.9,42,0.00,,,0.00,WUHU21623XXSP,2013-11-09 17:31:00,
2013-11-09 12:36:00,50.4,27.5,30.11,NNW,337,2.7,2.9,41,0.00,,,0.00,WUHU21623XXSP,2013-11-09 17:36:00,
2013-11-09 12:41:00,49.6,27.4,30.11,NW,315,0.0,2.9,42,0.00,,,0.00,WUHU21623XXSP,2013-11-09 17:41:00,
2013-11-09 12:46:00,49.3,27.1,30.11,South,180,0.0,1.8,42,0.00,,,0.00,WUHU21623XXSP,2013-11-09 17:46:00,
2013-11-09 12:51:00,48.9,26.7,30.10,NNW,337,0.0,0.0,42,0.00,,,0.00,WUHU21623XXSP,2013-11-09 17:51:00,
2013-11-09 12:56:00,48.7,26.5,30.10,NW,315,0.0,0.0,42,0.00,,,0.00,WUHU21623XXSP,2013-11-09 17:56:00,
2013-11-09 13:01:00,48.7,26.5,30.09,NW,315,0.0,1.1,42,0.00,,,0.00,WUHU21623XXSP,2013-11-09 18:01:00,
2013-11-09 13:06:00,48.7,26.5,30.10,SW,225,0.0,1.3,42,0.00,,,0.00,WUHU21623XXSP,2013-11-09 18:06:00,
2013-11-09 13:11:00,48.6,26.4,30.09,NNW,337,0.0,1.3,42,0.00,,,0.00,WUHU21623XXSP,2013-11-09 18:11:00,
2013-11-09 13:16:00,48.6,26.4,30.09,North,0,2.5,3.8,42,0.00,,,0.00,WUHU21623XXSP,2013-11-09 18:16:00,
2013-11-09 13:21:00,48.4,26.2,30.09,SE,135,0.0,3.8,42,0.00,,,0.00,WUHU21623XXSP,2013-11-09 18:21:00,
2013-11-09 13:26:00,48.4,26.2,30.09,SSW,202,0.0,1.3,42,0.00,,,0.00,WUHU21623XXSP,2013-11-09 18:26:00,
2013-11-09 13:31:00,48.4,26.2,30.09,South,180,0.7,0.7,42,0.00,,,0.00,WUHU21623XXSP,2013-11-09 18:31:00,
2013-11-09 13:36:00,48.6,26.4,30.09,South,180,2.5,2.5,42,0.00,,,0.00,WUHU21623XXSP,2013-11-09 18:36:00,
2013-11-09 13:41:00,48.6,26.4,30.09,NW,315,0.0,2.5,42,0.00,,,0.00,WUHU21623XXSP,2013-11-09 18:41:00,
2013-11-09 13:46:00,48.6,26.4,30.09,NNE,22,0.0,0.0,42,0.00,,,0.00,WUHU21623XXSP,2013-11-09 18:46:00,
2013-11-09 13:51:00,48.7,26.5,30.09,West,270,0.0,1.6,42,0.00,,,0.00,WUHU21623XXSP,2013-11-09 18:51:00,
2013-11-09 13:56:00,48.6,26.4,30.09,North,0,2.2,3.1,42,0.00,,,0.00,WUHU21623XXSP,2013-11-09 18:56:00,
2013-11-09 14:01:00,48.7,26.5,30.09,NW,315,0.0,3.1,42,0.00,,,0.00,WUHU21623XXSP,2013-11-09 19:01:00,
2013-11-09 14:06:00,48.7,26.0,30.08,SSW,202,0.0,1.8,41,0.00,,,0.00,WUHU21623XXSP,2013-11-09 19:06:00,
2013-11-09 14:11:00,48.4,26.2,30.08,NW,315,0.0,1.8,42,0.00,,,0.00,WUHU21623XXSP,2013-11-09 19:11:00,
2013-11-09 14:16:00,48.2,26.1,30.08,SSW,202,0.0,0.0,42,0.00,,,0.00,WUHU21623XXSP,2013-11-09 19:16:00,
2013-11-09 14:21:00,48.2,26.1,30.08,South,180,0.0,0.0,42,0.00,,,0.00,WUHU21623XXSP,2013-11-09 19:21:00,
2013-11-09 14:26:00,48.0,26.4,30.08,West,270,1.8,1.8,43,0.00,,,0.00,WUHU21623XXSP,2013-11-09 19:26:00,
2013-11-09 14:31:00,48.0,26.4,30.07,SSW,202,0.0,1.8,43,0.00,,,0.00,WUHU21623XXSP,2013-11-09 19:31:00,
2013-11-09 14:36:00,48.0,26.4,30.07,North,0,2.2,2.2,43,0.00,,,0.00,WUHU21623XXSP,2013-11-09 19:36:00,
2013-11-09 14:41:00,48.0,26.4,30.07,NNW,337,0.0,2.2,43,0.00,,,0.00,WUHU21623XXSP,2013-11-09 19:41:00,
2013-11-09 14:46:00,48.0,26.4,30.07,West,270,0.0,2.9,43,0.00,,,0.00,WUHU21623XXSP,2013-11-09 19:46:00,
2013-11-09 14:51:00,47.8,26.3,30.07,NNE,22,0.0,2.9,43,0.00,,,0.00,WUHU21623XXSP,2013-11-09 19:51:00,
2013-11-09 14:56:00,47.8,26.8,30.08,SW,225,0.0,0.0,44,0.00,,,0.00,WUHU21623XXSP,2013-11-09 19:56:00,
2013-11-09 15:01:00,47.5,26.0,30.08,SE,135,0.0,0.0,43,0.00,,,0.00,WUHU21623XXSP,2013-11-09 20:01:00,
2013-11-09 15:06:00,47.5,26.5,30.08,NNE,22,0.0,1.1,44,0.00,,,0.00,WUHU21623XXSP,2013-11-09 20:06:00,
2013-11-09 15:11:00,47.3,26.3,30.08,ESE,112,2.7,2.7,44,0.00,,,0.00,WUHU21623XXSP,2013-11-09 20:11:00,
2013-11-09 15:16:00,47.1,26.2,30.08,SSW,202,0.0,2.7,44,0.00,,,0.00,WUHU21623XXSP,2013-11-09 20:16:00,
2013-11-09 15:21:00,46.9,26.0,30.08,SE,135,1.3,2.5,44,0.00,,,0.00,WUHU21623XXSP,2013-11-09 20:21:00,
2013-11-09 15:26:00,46.6,25.7,30.08,West,270,0.0,2.5,44,0.00,,,0.00,WUHU21623XXSP,2013-11-09 20:26:00,
2013-11-09 15:31:00,46.6,25.7,30.08,SE,135,0.0,1.8,44,0.00,,,0.00,WUHU21623XXSP,2013-11-09 20:31:00,
2013-11-09 15:36:00,46.2,25.4,30.09,NNW,337,2.9,2.9,44,0.00,,,0.00,WUHU21623XXSP,2013-11-09 20:36:00,
2013-11-09 15:41:00,46.0,25.2,30.08,WNW,292,0.0,2.9,44,0.00,,,0.00,WUHU21623XXSP,2013-11-09 20:41:00,
2013-11-09 15:46:00,46.0,25.7,30.08,NNE,22,0.0,2.0,45,0.00,,,0.00,WUHU21623XXSP,2013-11-09 20:46:00,
2013-11-09 15:51:00,45.7,25.4,30.08,WNW,292,0.0,2.0,45,0.00,,,0.00,WUHU21623XXSP,2013-11-09 20:51:00,
2013-11-09 15:56:00,45.3,25.1,30.08,NNW,337,0.0,2.0,45,0.00,,,0.00,WUHU21623XXSP,2013-11-09 20:56:00,
2013-11-09 16:01:00,45.1,24.9,30.08,NNW,337,0.0,0.0,45,0.00,,,0.00,WUHU21623XXSP,2013-11-09 21:01:00,
2013-11-09 16:06:00,44.8,24.6,30.09,West,270,0.0,2.0,45,0.00,,,0.00,WUHU21623XXSP,2013-11-09 21:06:00,
2013-11-09 16:11:00,44.4,24.8,30.08,NNE,22,0.0,2.0,46,0.00,,,0.00,WUHU21623XXSP,2013-11-09 21:11:00,
2013-11-09 16:16:00,44.2,24.7,30.08,SE,135,0.0,0.0,46,0.00,,,0.00,WUHU21623XXSP,2013-11-09 21:16:00,
2013-11-09 16:21:00,44.1,25.0,30.08,South,180,0.0,0.0,47,0.00,,,0.00,WUHU21623XXSP,2013-11-09 21:21:00,
2013-11-09 16:26:00,43.7,24.7,30.08,South,180,0.0,0.0,47,0.00,,,0.00,WUHU21623XXSP,2013-11-09 21:26:00,
2013-11-09 16:31:00,43.5,24.5,30.08,NE,45,0.0,0.0,47,0.00,,,0.00,WUHU21623XXSP,2013-11-09 21:31:00,
2013-11-09 16:36:00,43.3,24.9,30.08,East,90,0.0,0.0,48,0.00,,,0.00,WUHU21623XXSP,2013-11-09 21:36:00,
2013-11-09 16:41:00,43.0,24.6,30.08,WSW,247,0.0,0.0,48,0.00,,,0.00,WUHU21623XXSP,2013-11-09 21:41:00,
2013-11-09 16:46:00,42.6,24.8,30.09,WSW,247,0.0,0.0,49,0.00,,,0.00,WUHU21623XXSP,2013-11-09 21:46:00,
2013-11-09 16:51:00,42.6,24.8,30.08,WSW,247,0.0,0.0,49,0.00,,,0.00,WUHU21623XXSP,2013-11-09 21:51:00,
2013-11-09 16:56:00,42.1,24.3,30.09,WSW,247,0.0,0.0,49,0.00,,,0.00,WUHU21623XXSP,2013-11-09 21:56:00,
2013-11-09 17:01:00,42.1,24.3,30.09,WSW,247,0.0,0.0,49,0.00,,,0.00,WUHU21623XXSP,2013-11-09 22:01:00,
2013-11-09 17:06:00,41.9,24.6,30.09,WSW,247,0.0,0.0,50,0.00,,,0.00,WUHU21623XXSP,2013-11-09 22:06:00,
2013-11-09 17:11:00,41.5,24.3,30.09,WSW,247,0.0,0.0,50,0.00,,,0.00,WUHU21623XXSP,2013-11-09 22:11:00,
2013-11-09 17:16:00,41.5,24.7,30.09,WSW,247,0.0,0.0,51,0.00,,,0.00,WUHU21623XXSP,2013-11-09 22:16:00,
2013-11-09 17:21:00,41.2,24.3,30.09,WSW,247,0.0,0.0,51,0.00,,,0.00,WUHU21623XXSP,2013-11-09 22:21:00,
2013-11-09 17:26:00,40.8,24.4,30.09,WSW,247,0.0,0.0,52,0.00,,,0.00,WUHU21623XXSP,2013-11-09 22:26:00,
2013-11-09 17:31:00,40.8,24.9,30.09,WSW,247,0.0,0.0,53,0.00,,,0.00,WUHU21623XXSP,2013-11-09 22:31:00,
2013-11-09 17:36:00,40.6,24.7,30.09,WSW,247,0.0,0.0,53,0.00,,,0.00,WUHU21623XXSP,2013-11-09 22:36:00,
2013-11-09 17:41:00,40.5,25.0,30.10,WSW,247,0.0,0.0,54,0.00,,,0.00,WUHU21623XXSP,2013-11-09 22:41:00,
2013-11-09 17:46:00,40.5,25.0,30.09,WSW,247,0.0,0.0,54,0.00,,,0.00,WUHU21623XXSP,2013-11-09 22:46:00,
2013-11-09 17:51:00,40.3,24.8,30.09,WSW,247,0.0,0.0,54,0.00,,,0.00,WUHU21623XXSP,2013-11-09 22:51:00,
2013-11-09 17:56:00,40.3,25.3,30.09,WSW,247,0.0,0.0,55,0.00,,,0.00,WUHU21623XXSP,2013-11-09 22:56:00,
2013-11-09 18:01:00,40.3,25.3,30.10,SW,225,0.0,0.0,55,0.00,,,0.00,WUHU21623XXSP,2013-11-09 23:01:00,
2013-11-09 18:06:00,40.3,25.3,30.09,SW,225,0.0,0.0,55,0.00,,,0.00,WUHU21623XXSP,2013-11-09 23:06:00,
2013-11-09 18:11:00,40.1,25.1,30.10,SW,225,0.0,0.0,55,0.00,,,0.00,WUHU21623XXSP,2013-11-09 23:11:00,
2013-11-09 18:16:00,40.1,25.1,30.10,SW,225,0.0,0.0,55,0.00,,,0.00,WUHU21623XXSP,2013-11-09 23:16:00,
2013-11-09 18:21:00,40.1,25.1,30.10,South,180,0.0,0.0,55,0.00,,,0.00,WUHU21623XXSP,2013-11-09 23:21:00,
2013-11-09 18:26:00,39.9,25.4,30.10,South,180,0.0,0.0,56,0.00,,,0.00,WUHU21623XXSP,2013-11-09 23:26:00,
2013-11-09 18:31:00,39.9,25.4,30.10,South,180,0.0,0.0,56,0.00,,,0.00,WUHU21623XXSP,2013-11-09 23:31:00,
2013-11-09 18:36:00,39.9,25.8,30.09,South,180,0.0,0.0,57,0.00,,,0.00,WUHU21623XXSP,2013-11-09 23:36:00,
2013-11-09 18:41:00,40.1,26.0,30.09,SSW,202,0.0,0.0,57,0.00,,,0.00,WUHU21623XXSP,2013-11-09 23:41:00,
2013-11-09 18:46:00,40.1,26.0,30.09,SSW,202,0.0,0.0,57,0.00,,,0.00,WUHU21623XXSP,2013-11-09 23:46:00,
2013-11-09 18:51:00,40.3,26.6,30.09,South,180,0.0,0.0,58,0.00,,,0.00,WUHU21623XXSP,2013-11-09 23:51:00,
2013-11-09 18:56:00,40.3,26.6,30.10,South,180,0.0,0.0,58,0.00,,,0.00,WUHU21623XXSP,2013-11-09 23:56:00,
2013-11-09 19:01:00,40.3,26.6,30.09,South,180,0.0,0.0,58,0.00,,,0.00,WUHU21623XXSP,2013-11-10 00:01:00,
2013-11-09 19:06:00,40.3,26.6,30.09,South,180,0.0,0.0,58,0.00,,,0.00,WUHU21623XXSP,2013-11-10 00:06:00,
2013-11-09 19:11:00,40.3,26.6,30.09,South,180,0.0,0.0,58,0.00,,,0.00,WUHU21623XXSP,2013-11-10 00:11:00,
2013-11-09 19:16:00,40.3,26.6,30.08,South,180,0.0,0.0,58,0.00,,,0.00,WUHU21623XXSP,2013-11-10 00:16:00,
2013-11-09 19:21:00,40.3,27.1,30.08,SSW,202,0.0,0.0,59,0.00,,,0.00,WUHU21623XXSP,2013-11-10 00:21:00,
2013-11-09 19:26:00,40.5,27.2,30.09,South,180,0.0,0.0,59,0.00,,,0.00,WUHU21623XXSP,2013-11-10 00:26:00,
2013-11-09 19:31:00,40.5,27.2,30.09,South,180,0.0,0.0,59,0.00,,,0.00,WUHU21623XXSP,2013-11-10 00:31:00,
2013-11-09 19:36:00,40.5,27.2,30.09,South,180,0.0,0.0,59,0.00,,,0.00,WUHU21623XXSP,2013-11-10 00:36:00,
2013-11-09 19:41:00,40.5,27.2,30.09,SSE,157,0.0,0.0,59,0.00,,,0.00,WUHU21623XXSP,2013-11-10 00:41:00,
2013-11-09 19:46:00,40.5,27.2,30.09,NNW,337,0.0,0.0,59,0.00,,,0.00,WUHU21623XXSP,2013-11-10 00:46:00,
2013-11-09 19:51:00,40.6,27.4,30.09,NNW,337,0.0,0.0,59,0.00,,,0.00,WUHU21623XXSP,2013-11-10 00:51:00,
2013-11-09 19:56:00,40.6,27.4,30.10,NNW,337,0.0,0.0,60,0.00,,,0.00,WUHU21623XXSP,2013-11-10 00:56:00,
2013-11-09 20:01:00,40.8,28.0,30.10,SSW,202,0.0,0.0,60,0.00,,,0.00,WUHU21623XXSP,2013-11-10 01:01:00,
2013-11-09 20:06:00,40.8,28.0,30.10,South,180,0.0,0.0,60,0.00,,,0.00,WUHU21623XXSP,2013-11-10 01:06:00,
2013-11-09 20:11:00,40.8,28.0,30.10,South,180,0.0,0.0,60,0.00,,,0.00,WUHU21623XXSP,2013-11-10 01:11:00,
2013-11-09 20:16:00,40.8,28.0,30.09,South,180,0.0,0.0,60,0.00,,,0.00,WUHU21623XXSP,2013-11-10 01:16:00,
2013-11-09 20:21:00,40.8,28.0,30.10,South,180,0.0,0.0,60,0.00,,,0.00,WUHU21623XXSP,2013-11-10 01:21:00,
2013-11-09 20:26:00,40.8,28.0,30.09,South,180,0.0,0.0,60,0.00,,,0.00,WUHU21623XXSP,2013-11-10 01:26:00,
2013-11-09 20:31:00,40.8,28.0,30.09,South,180,0.0,0.0,60,0.00,,,0.00,WUHU21623XXSP,2013-11-10 01:31:00,
2013-11-09 20:36:00,40.8,28.4,30.09,South,180,0.0,0.0,61,0.00,,,0.00,WUHU21623XXSP,2013-11-10 01:36:00,
2013-11-09 20:41:00,40.8,28.4,30.09,South,180,0.0,0.0,61,0.00,,,0.00,WUHU21623XXSP,2013-11-10 01:41:00,
2013-11-09 20:46:00,40.8,28.4,30.09,South,180,0.0,0.0,61,0.00,,,0.00,WUHU21623XXSP,2013-11-10 01:46:00,
2013-11-09 20:51:00,40.8,28.4,30.09,South,180,0.0,0.0,61,0.00,,,0.00,WUHU21623XXSP,2013-11-10 01:51:00,
2013-11-09 20:56:00,40.8,28.4,30.09,South,180,0.0,0.0,61,0.00,,,0.00,WUHU21623XXSP,2013-11-10 01:56:00,
2013-11-09 21:01:00,40.8,28.4,30.09,South,180,0.0,0.0,61,0.00,,,0.00,WUHU21623XXSP,2013-11-10 02:01:00,
2013-11-09 21:06:00,40.8,28.4,30.09,South,180,0.0,0.0,61,0.00,,,0.00,WUHU21623XXSP,2013-11-10 02:06:00,
2013-11-09 21:11:00,40.8,28.4,30.09,South,180,0.0,0.0,61,0.00,,,0.00,WUHU21623XXSP,2013-11-10 02:11:00,
2013-11-09 21:16:00,40.8,28.4,30.09,South,180,0.0,0.0,61,0.00,,,0.00,WUHU21623XXSP,2013-11-10 02:16:00,
2013-11-09 21:21:00,40.8,28.4,30.09,South,180,0.0,0.0,61,0.00,,,0.00,WUHU21623XXSP,2013-11-10 02:21:00,
2013-11-09 21:26:00,40.8,28.8,30.08,South,180,0.0,0.0,62,0.00,,,0.00,WUHU21623XXSP,2013-11-10 02:26:00,
2013-11-09 21:31:00,40.8,28.8,30.09,South,180,0.0,0.0,62,0.00,,,0.00,WUHU21623XXSP,2013-11-10 02:31:00,
2013-11-09 21:36:00,40.8,28.8,30.08,South,180,0.0,0.0,62,0.00,,,0.00,WUHU21623XXSP,2013-11-10 02:36:00,
2013-11-09 21:41:00,40.8,28.8,30.08,South,180,0.0,0.0,62,0.00,,,0.00,WUHU21623XXSP,2013-11-10 02:41:00,
2013-11-09 21:46:00,40.8,29.2,30.08,SSW,202,0.0,0.0,63,0.00,,,0.00,WUHU21623XXSP,2013-11-10 02:46:00,
2013-11-09 21:51:00,40.8,29.2,30.08,SSW,202,0.0,0.0,63,0.00,,,0.00,WUHU21623XXSP,2013-11-10 02:51:00,
2013-11-09 21:56:00,40.8,29.2,30.08,SSW,202,0.0,0.0,63,0.00,,,0.00,WUHU21623XXSP,2013-11-10 02:56:00,
2013-11-09 22:01:00,40.6,29.0,30.08,SSW,202,0.0,0.0,63,0.00,,,0.00,WUHU21623XXSP,2013-11-10 03:01:00,
2013-11-09 22:06:00,40.6,29.4,30.08,SSW,202,0.0,0.0,64,0.00,,,0.00,WUHU21623XXSP,2013-11-10 03:06:00,
2013-11-09 22:11:00,40.6,29.4,30.07,SSW,202,0.0,0.0,64,0.00,,,0.00,WUHU21623XXSP,2013-11-10 03:11:00,
2013-11-09 22:16:00,40.5,29.2,30.07,SSW,202,0.0,0.0,64,0.00,,,0.00,WUHU21623XXSP,2013-11-10 03:16:00,
2013-11-09 22:21:00,40.3,29.0,30.07,South,180,0.0,0.0,64,0.00,,,0.00,WUHU21623XXSP,2013-11-10 03:21:00,
2013-11-09 22:26:00,40.3,29.0,30.06,South,180,0.0,0.0,64,0.00,,,0.00,WUHU21623XXSP,2013-11-10 03:26:00,
2013-11-09 22:31:00,40.3,29.0,30.06,SW,225,0.0,0.0,64,0.00,,,0.00,WUHU21623XXSP,2013-11-10 03:31:00,
2013-11-09 22:36:00,40.3,29.0,30.06,SW,225,0.0,0.0,64,0.00,,,0.00,WUHU21623XXSP,2013-11-10 03:36:00,
2013-11-09 22:41:00,40.3,29.4,30.06,ESE,112,0.0,0.0,65,0.00,,,0.00,WUHU21623XXSP,2013-11-10 03:41:00,
2013-11-09 22:46:00,40.5,29.6,30.06,East,90,0.0,0.0,65,0.00,,,0.00,WUHU21623XXSP,2013-11-10 03:46:00,
2013-11-09 22:51:00,40.5,29.6,30.06,East,90,0.0,0.0,65,0.00,,,0.00,WUHU21623XXSP,2013-11-10 03:51:00,
2013-11-09 22:56:00,40.3,29.4,30.05,ESE,112,0.0,0.0,65,0.00,,,0.00,WUHU21623XXSP,2013-11-10 03:56:00,
2013-11-09 23:01:00,40.3,29.4,30.05,ESE,112,0.0,0.0,65,0.00,,,0.00,WUHU21623XXSP,2013-11-10 04:01:00,
2013-11-09 23:06:00,40.3,29.4,30.05,ESE,112,0.0,0.0,65,0.00,,,0.00,WUHU21623XXSP,2013-11-10 04:06:00,
2013-11-09 23:11:00,40.3,29.4,30.05,ESE,112,0.0,0.0,65,0.00,,,0.00,WUHU21623XXSP,2013-11-10 04:11:00,
2013-11-09 23:16:00,40.3,29.8,30.04,ESE,112,0.0,0.0,66,0.00,,,0.00,WUHU21623XXSP,2013-11-10 04:16:00,
2013-11-09 23:21:00,40.1,29.6,30.04,ESE,112,0.0,0.0,66,0.00,,,0.00,WUHU21623XXSP,2013-11-10 04:21:00,
2013-11-09 23:26:00,40.1,29.6,30.04,ESE,112,0.0,0.0,66,0.00,,,0.00,WUHU21623XXSP,2013-11-10 04:26:00,
2013-11-09 23:31:00,40.3,29.8,30.04,ESE,112,0.0,0.0,66,0.00,,,0.00,WUHU21623XXSP,2013-11-10 04:31:00,
2013-11-09 23:36:00,40.3,30.1,30.03,East,90,0.0,0.0,67,0.00,,,0.00,WUHU21623XXSP,2013-11-10 04:36:00,
2013-11-09 23:41:00,40.3,30.1,30.03,ESE,112,0.0,0.0,67,0.00,,,0.00,WUHU21623XXSP,2013-11-10 04:41:00,
2013-11-09 23:46:00,40.3,30.1,30.03,ESE,112,0.0,0.0,67,0.00,,,0.00,WUHU21623XXSP,2013-11-10 04:46:00,
2013-11-09 23:51:00,40.3,30.1,30.02,SSE,157,0.0,0.0,67,0.00,,,0.00,WUHU21623XXSP,2013-11-10 04:51:00,
2013-11-09 23:56:00,40.3,30.1,30.02,SSE,157,0.0,0.0,67,0.00,,,0.00,WUHU21623XXSP,2013-11-10 04:56:00,